Find Starlink 30823

NORAD ID: 58248 Int'l Des: 2023-171 Owner: SPXS Country: US Constellation: starlink operational
LEOCIRCULAR

現在のビュー

3D地球を読み込み中...

About Starlink 30823

Starlink 30823 (NORAD 58248) is a starlink constellation satellite (v2 mini) launched Nov 8, 2023 by SPXS of US. It operates in LEO, CIRCULAR orbit with a mass of 730.00 kg.

次回通過

Passes for default location (London). Set your location on the main map for personalized predictions.

高度履歴

Loading altitude history...

軌道要素

1 58248U 23171U 26265.69492126 -.00000287 00000-0 -88328-6 0 9995
2 58248 43.0048 252.6781 0001706 276.6422 83.4236 15.27579395159860
Epoch: Sep 22, 2026 • Age: 15 hours

現在のステータス

高度 493.0 km
遠地点 / 近地点 N/A
速度 7.62 km/s
衛星直下点 -37.23°S, 3.19°E
打ち上げ日 Nov 8, 2023
運用期間 2.8 years
タイプ internet

技術仕様

分類 Payload
質量 730.00 kg
乾燥質量 700.00 kg
長さ 0.30 m
スパン 29.00 m
形状 ? Box + pan
製造者 SPXS
バスタイプ Starlink V2M
フェーズステータス In Orbit
所有者/国 SPXS/US

Most Searched